Other Surface Observations
Issued by NWS

Home | Current Version | Previous Version | Text Only | Print | Product List | Glossary On
Versions: 1 2 3 4 5 6 7 8 9 10 11 12 13 14 15 16 17 18 19 20 21 22 23 24 25 26 27 28 29 30 31 32 33 34 35 36 37 38 39 40 41 42 43 44 45 46 47 48 49 50
251
SXUS52 KTAE 220818
OSOTAE
OSOTAE
North Florida/South Alabama/Southwest Georgia Weather Roundup
National Weather Service Tallahassee Florida
300 AM EST WED FEB 22 2017

Note: "fair" indicates few or no clouds below 12,000 feet with no
significant weather and/or obstructions to visibility.

!FLZ017-115-028-034-025-220900
...North Florida...

CITY           SKY/WX    TMP DP  RH WIND       PRES   REMARKS
TALLAHASSEE    LGT RAIN  61  61 100 N3        29.82F
APALACHICOLA   RAIN      60  60 100 E9        29.80F
PERRY          CLOUDY    66  60  81 SE5       29.84S
CROSS CITY     MOCLDY    64  59  82 SE6       29.82F
JACKSONVILLE   MOCLDY    67  62  84 E7        29.87F
$$

!FLZ112-006-005-002-011-220900
...Florida Panhandle...

CITY           SKY/WX    TMP DP  RH WIND       PRES   REMARKS
MARIANNA       LGT RAIN  61  60  97 E6        29.81F
BONIFAY        NOT AVBL
PANAMA CITY NW CLOUDY    60  59  96 CALM      29.77F
TYNDALL AFB    MOCLDY    60  58  94 E9        29.75F
TYND DRONE APT LGT RAIN  60  60  99 E12G25    29.75F
DE FUNIAK SPR  DRIZZLE   58  58 100 E3        29.80F
EGLIN AFB      LGT RAIN  60  58  95 NE6       29.78F
DESTIN         LGT RAIN  63  63 100 E7        29.77F
HURLBURT       DRIZZLE   60  58  95 NE6       29.76F
CRESTVIEW      CLOUDY    59  58  96 CALM      29.81S
PENSACOLA      LGT RAIN  61  59  93 N6        29.79F
$$

!ALZ063-066-220900
...South Alabama...

CITY           SKY/WX    TMP DP  RH WIND       PRES   REMARKS
DOTHAN         LGT RAIN  59  59 100 E6        29.84F
OZARK CAIRNS   LGT RAIN N/A N/A N/A NE5       29.81F
FT RUCKER HELI LGT RAIN  59  58  98 NE3       29.80F
RUCKER HELI 3  NOT AVBL
RUCKER HELI 2  LGT RAIN  59  59 100 N3        29.80F FOG
FLORALA APT    LGT RAIN  59  57  93 E5        29.80F
ANDALUSIA      LGT RAIN  61  57  87 CALM      29.79F
TROY           LGT RAIN  59  59 100 E5        29.82F
EUFALA         LGT RAIN  61  60  97 CALM      29.81F FOG
MOBILE         CLOUDY    59  57  93 CALM      29.81F
$$

!GAZ120>161-220900
...Southwest and South Central Georgia...

CITY           SKY/WX    TMP DP  RH WIND       PRES   REMARKS
THOMASVILLE    CLOUDY    63  63 100 CALM      29.83F
BAINBRIDGE     CLOUDY    61  61 100 CALM      29.83F
MOODY AFB      CLOUDY    63  61  91 E6        29.83F
VALDOSTA       CLOUDY    64  61  90 E3        29.84F
MOULTRIE       CLOUDY    63  61  94 E3        29.84F
BLAKELY        LGT RAIN  63  61  94 CALM      29.84F
ALBANY         LGT RAIN  62  61  96 CALM      29.85F
TIFTON         LGT RAIN  64  61  91 SE5       29.85F
FITZGERALD     CLOUDY    66  62  87 SE7       29.88F
CORDELE        CLOUDY    67  61  80 SE5       29.87F
AMERICUS       RAIN      61  61 100 CALM      29.87F
HOMERVILLE       N/A     64  63  94 E6        29.86F
$$

!GMZ750-755-770-775-220900
...Coastal and Buoy Obs...

STATION/POSITION TIME  TEMP    WIND        PRES    VSBY  WAVE
                       AIR SEA DIR/SP/G                  HT/PER
                 (UTC) (F)     (DEG/KT/KT) (MB)    (MI)  (FT/S)
KEATON BEACH     0800   64      90/  4/  4 1009.4F
CEDAR KEY        0800   69     120/ 12/ 14 1009.7F
C TOWER          0800   61      80/ 11/ 13 1009.0F
APALACHICOLA BUO 0750   66 69  120/ 17/ 21 1006.4F         6/ 6
PANAMA CITY BUOY 0750   66 70              1007.1F         5/ 7
MOBILE BUOY      NOT AVBL
ORANGE BCH AL BU 0750   63 68   20/ 14/ 16 1008.3F         4/ 6
$$




USA.gov is the U.S. government's official web portal to all federal, state and local government web resources and services.